Year,Month,Day,Hour,Minute,Value (Times are PST for temperature in C)
2015,06,14,00,00,15.20
2015,06,14,00,01,15.20
2015,06,14,00,02,15.20
2015,06,14,00,03,15.20
2015,06,14,00,04,15.20
2015,06,14,00,05,15.20
2015,06,14,00,06,15.20
2015,06,14,00,07,15.20
2015,06,14,00,08,15.20
2015,06,14,00,09,15.20
2015,06,14,00,10,15.20
2015,06,14,00,11,15.20
2015,06,14,00,12,15.10
2015,06,14,00,13,15.10
2015,06,14,00,14,15.10
2015,06,14,00,15,15.10
2015,06,14,00,16,15.00
2015,06,14,00,17,15.00
2015,06,14,00,18,15.00
2015,06,14,00,19,14.90
2015,06,14,00,20,14.90
2015,06,14,00,21,14.90
2015,06,14,00,22,14.90
2015,06,14,00,23,14.90
2015,06,14,00,24,14.90
2015,06,14,00,25,14.90
2015,06,14,00,26,14.80
2015,06,14,00,27,14.80
2015,06,14,00,28,14.80
2015,06,14,00,29,14.80
2015,06,14,00,30,14.80
2015,06,14,00,31,14.80
2015,06,14,00,32,14.80
2015,06,14,00,33,14.80
2015,06,14,00,34,14.80
2015,06,14,00,35,14.80
2015,06,14,00,36,14.80
2015,06,14,00,37,14.70
2015,06,14,00,38,14.70
2015,06,14,00,39,14.70
2015,06,14,00,40,14.70
2015,06,14,00,41,14.60
2015,06,14,00,42,14.60
2015,06,14,00,43,14.60
2015,06,14,00,44,14.60
2015,06,14,00,45,14.50
2015,06,14,00,46,14.50
2015,06,14,00,47,14.50
2015,06,14,00,48,14.40
2015,06,14,00,49,14.40
2015,06,14,00,50,14.40
2015,06,14,00,51,14.40
2015,06,14,00,52,14.30
2015,06,14,00,53,14.30
2015,06,14,00,54,14.30
2015,06,14,00,55,14.30
2015,06,14,00,56,14.30
2015,06,14,00,57,14.20
2015,06,14,00,58,14.20
2015,06,14,00,59,14.20
2015,06,14,01,00,14.20
2015,06,14,01,01,14.20
2015,06,14,01,02,14.10
2015,06,14,01,03,14.10
2015,06,14,01,04,14.10
2015,06,14,01,05,14.10
2015,06,14,01,06,14.10
2015,06,14,01,07,14.00
2015,06,14,01,08,14.00
2015,06,14,01,09,14.00
2015,06,14,01,10,13.90
2015,06,14,01,11,13.90
2015,06,14,01,12,13.90
2015,06,14,01,13,13.90
2015,06,14,01,14,13.90
2015,06,14,01,15,13.80
2015,06,14,01,16,13.80
2015,06,14,01,17,13.80
2015,06,14,01,18,13.80
2015,06,14,01,19,13.80
2015,06,14,01,20,13.80
2015,06,14,01,21,13.70
2015,06,14,01,22,13.70
2015,06,14,01,23,13.70
2015,06,14,01,24,13.60
2015,06,14,01,25,13.60
2015,06,14,01,26,13.60
2015,06,14,01,27,13.60
2015,06,14,01,28,13.60
2015,06,14,01,29,13.60
2015,06,14,01,30,13.50
2015,06,14,01,31,13.50
2015,06,14,01,32,13.50
2015,06,14,01,33,13.50
2015,06,14,01,34,13.40
2015,06,14,01,35,13.40
2015,06,14,01,36,13.40
2015,06,14,01,37,13.40
2015,06,14,01,38,13.40
2015,06,14,01,39,13.30
2015,06,14,01,40,13.30
2015,06,14,01,41,13.30
2015,06,14,01,42,13.30
2015,06,14,01,43,13.30
2015,06,14,01,44,13.20
2015,06,14,01,45,13.20
2015,06,14,01,46,13.10
2015,06,14,01,47,13.10
2015,06,14,01,48,13.00
2015,06,14,01,49,13.00
2015,06,14,01,50,12.90
2015,06,14,01,51,12.90
2015,06,14,01,52,12.90
2015,06,14,01,53,12.80
2015,06,14,01,54,12.80
2015,06,14,01,55,12.70
2015,06,14,01,56,12.70
2015,06,14,01,57,12.70
2015,06,14,01,58,12.60
2015,06,14,01,59,12.60
2015,06,14,02,00,12.60
2015,06,14,02,01,12.60
2015,06,14,02,02,12.50
2015,06,14,02,03,12.50
2015,06,14,02,04,12.40
2015,06,14,02,05,12.40
2015,06,14,02,06,12.30
2015,06,14,02,07,12.30
2015,06,14,02,08,12.30
2015,06,14,02,09,12.20
2015,06,14,02,10,12.20
2015,06,14,02,11,12.20
2015,06,14,02,12,12.20
2015,06,14,02,13,12.10
2015,06,14,02,14,12.10
2015,06,14,02,15,12.10
2015,06,14,02,16,12.10
2015,06,14,02,17,12.10
2015,06,14,02,18,12.00
2015,06,14,02,19,12.00
2015,06,14,02,20,12.00
2015,06,14,02,21,12.00
2015,06,14,02,22,12.00
2015,06,14,02,23,12.00
2015,06,14,02,24,11.90
2015,06,14,02,25,11.90
2015,06,14,02,26,11.90
2015,06,14,02,27,11.90
2015,06,14,02,28,11.90
2015,06,14,02,29,11.90
2015,06,14,02,30,11.90
2015,06,14,02,31,11.90
2015,06,14,02,32,11.90
2015,06,14,02,33,11.90
2015,06,14,02,34,11.90
2015,06,14,02,35,11.80
2015,06,14,02,36,11.80
2015,06,14,02,37,11.80
2015,06,14,02,38,11.80
2015,06,14,02,39,11.80
2015,06,14,02,40,11.70
2015,06,14,02,41,11.70
2015,06,14,02,42,11.70
2015,06,14,02,43,11.60
2015,06,14,02,44,11.60
2015,06,14,02,45,11.50
2015,06,14,02,46,11.50
2015,06,14,02,47,11.40
2015,06,14,02,48,11.40
2015,06,14,02,49,11.30
2015,06,14,02,50,11.30
2015,06,14,02,51,11.20
2015,06,14,02,52,11.20
2015,06,14,02,53,11.10
2015,06,14,02,54,11.10
2015,06,14,02,55,11.00
2015,06,14,02,56,11.00
2015,06,14,02,57,10.90
2015,06,14,02,58,10.90
2015,06,14,02,59,10.90
2015,06,14,03,00,10.80
2015,06,14,03,01,10.80
2015,06,14,03,02,10.80
2015,06,14,03,03,10.80
2015,06,14,03,04,10.80
2015,06,14,03,05,10.80
2015,06,14,03,06,10.70
2015,06,14,03,07,10.70
2015,06,14,03,08,10.70
2015,06,14,03,09,10.70
2015,06,14,03,10,10.70
2015,06,14,03,11,10.70
2015,06,14,03,12,10.60
2015,06,14,03,13,10.60
2015,06,14,03,14,10.60
2015,06,14,03,15,10.60
2015,06,14,03,16,10.60
2015,06,14,03,17,10.50
2015,06,14,03,18,10.50
2015,06,14,03,19,10.50
2015,06,14,03,20,10.40
2015,06,14,03,21,10.40
2015,06,14,03,22,10.40
2015,06,14,03,23,10.40
2015,06,14,03,24,10.40
2015,06,14,03,25,10.40
2015,06,14,03,26,10.30
2015,06,14,03,27,10.30
2015,06,14,03,28,10.30
2015,06,14,03,29,10.30
2015,06,14,03,30,10.30
2015,06,14,03,31,10.20
2015,06,14,03,32,10.20
2015,06,14,03,33,10.20
2015,06,14,03,34,10.20
2015,06,14,03,35,10.20
2015,06,14,03,36,10.20
2015,06,14,03,37,10.10
2015,06,14,03,38,10.10
2015,06,14,03,39,10.10
2015,06,14,03,40,10.10
2015,06,14,03,41,10.10
2015,06,14,03,42,10.10
2015,06,14,03,43,10.10
2015,06,14,03,44,10.10
2015,06,14,03,45,10.10
2015,06,14,03,46,10.10
2015,06,14,03,47,10.10
2015,06,14,03,48,10.10
2015,06,14,03,49,10.10
2015,06,14,03,50,10.10
2015,06,14,03,51,10.20
2015,06,14,03,52,10.20
2015,06,14,03,53,10.20
2015,06,14,03,54,10.20
2015,06,14,03,55,10.30
2015,06,14,03,56,10.30
2015,06,14,03,57,10.30
2015,06,14,03,58,10.30
2015,06,14,03,59,10.30
2015,06,14,04,00,10.30
2015,06,14,04,01,10.30
2015,06,14,04,02,10.30
2015,06,14,04,03,10.30
2015,06,14,04,04,10.30
2015,06,14,04,05,10.30
2015,06,14,04,06,10.20
2015,06,14,04,07,10.20
2015,06,14,04,08,10.20
2015,06,14,04,09,10.10
2015,06,14,04,10,10.10
2015,06,14,04,11,10.10
2015,06,14,04,12,10.00
2015,06,14,04,13,10.00
2015,06,14,04,14,9.90
2015,06,14,04,15,9.90
2015,06,14,04,16,9.80
2015,06,14,04,17,9.80
2015,06,14,04,18,9.70
2015,06,14,04,19,9.60
2015,06,14,04,20,9.60
2015,06,14,04,21,9.50
2015,06,14,04,22,9.50
2015,06,14,04,23,9.40
2015,06,14,04,24,9.40
2015,06,14,04,25,9.30
2015,06,14,04,26,9.30
2015,06,14,04,27,9.30
2015,06,14,04,28,9.20
2015,06,14,04,29,9.20
2015,06,14,04,30,9.20
2015,06,14,04,31,9.20
2015,06,14,04,32,9.20
2015,06,14,04,33,9.20
2015,06,14,04,34,9.20
2015,06,14,04,35,9.20
2015,06,14,04,36,9.10
2015,06,14,04,37,9.10
2015,06,14,04,38,9.10
2015,06,14,04,39,9.10
2015,06,14,04,40,9.10
2015,06,14,04,41,9.10
2015,06,14,04,42,9.10
2015,06,14,04,43,9.10
2015,06,14,04,44,9.10
2015,06,14,04,45,9.10
2015,06,14,04,46,9.10
2015,06,14,04,47,9.00
2015,06,14,04,48,9.00
2015,06,14,04,49,9.00
2015,06,14,04,50,8.90
2015,06,14,04,51,8.90
2015,06,14,04,52,8.90
2015,06,14,04,53,8.90
2015,06,14,04,54,8.90
2015,06,14,04,55,8.90
2015,06,14,04,56,8.90
2015,06,14,04,57,8.90
2015,06,14,04,58,8.80
2015,06,14,04,59,8.80
2015,06,14,05,00,8.80
2015,06,14,05,01,8.80
2015,06,14,05,02,8.80
2015,06,14,05,03,8.80
2015,06,14,05,04,8.80
2015,06,14,05,05,8.80
2015,06,14,05,06,8.70
2015,06,14,05,07,8.70
2015,06,14,05,08,8.70
2015,06,14,05,09,8.70
2015,06,14,05,10,8.70
2015,06,14,05,11,8.70
2015,06,14,05,12,8.70
2015,06,14,05,13,8.70
2015,06,14,05,14,8.70
2015,06,14,05,15,8.60
2015,06,14,05,16,8.60
2015,06,14,05,17,8.60
2015,06,14,05,18,8.60
2015,06,14,05,19,8.60
2015,06,14,05,20,8.60
2015,06,14,05,21,8.60
2015,06,14,05,22,8.60
2015,06,14,05,23,8.60
2015,06,14,05,24,8.60
2015,06,14,05,25,8.50
2015,06,14,05,26,8.50
2015,06,14,05,27,8.50
2015,06,14,05,28,8.60
2015,06,14,05,29,8.60
2015,06,14,05,30,8.60
2015,06,14,05,31,8.60
2015,06,14,05,32,8.60
2015,06,14,05,33,8.60
2015,06,14,05,34,8.70
2015,06,14,05,35,8.70
2015,06,14,05,36,8.70
2015,06,14,05,37,8.70
2015,06,14,05,38,8.60
2015,06,14,05,39,8.60
2015,06,14,05,40,8.50
2015,06,14,05,41,8.40
2015,06,14,05,42,8.30
2015,06,14,05,43,8.30
2015,06,14,05,44,8.20
2015,06,14,05,45,8.20
2015,06,14,05,46,8.10
2015,06,14,05,47,8.10
2015,06,14,05,48,8.10
2015,06,14,05,49,8.10
2015,06,14,05,50,8.10
2015,06,14,05,51,8.10
2015,06,14,05,52,8.10
2015,06,14,05,53,8.20
2015,06,14,05,54,8.20
2015,06,14,05,55,8.20
2015,06,14,05,56,8.20
2015,06,14,05,57,8.30
2015,06,14,05,58,8.30
2015,06,14,05,59,8.20
2015,06,14,06,00,8.20
2015,06,14,06,01,8.00
2015,06,14,06,02,7.90
2015,06,14,06,03,7.80
2015,06,14,06,04,7.80
2015,06,14,06,05,7.80
2015,06,14,06,06,7.70
2015,06,14,06,07,7.70
2015,06,14,06,08,7.70
2015,06,14,06,09,7.70
2015,06,14,06,10,7.60
2015,06,14,06,11,7.60
2015,06,14,06,12,7.60
2015,06,14,06,13,7.60
2015,06,14,06,14,7.60
2015,06,14,06,15,7.60
2015,06,14,06,16,7.60
2015,06,14,06,17,7.60
2015,06,14,06,18,7.60
2015,06,14,06,19,7.60
2015,06,14,06,20,7.70
2015,06,14,06,21,7.70
2015,06,14,06,22,7.70
2015,06,14,06,23,7.70
2015,06,14,06,24,7.70
2015,06,14,06,25,7.70
2015,06,14,06,26,7.80
2015,06,14,06,27,7.80
2015,06,14,06,28,7.80
2015,06,14,06,29,7.90
2015,06,14,06,30,7.90
2015,06,14,06,31,8.00
2015,06,14,06,32,8.10
2015,06,14,06,33,8.10
2015,06,14,06,34,8.20
2015,06,14,06,35,8.20
2015,06,14,06,36,8.30
2015,06,14,06,37,8.40
2015,06,14,06,38,8.60
2015,06,14,06,39,8.70
2015,06,14,06,40,8.80
2015,06,14,06,41,9.00
2015,06,14,06,42,9.10
2015,06,14,06,43,9.20
2015,06,14,06,44,9.40
2015,06,14,06,45,9.50
2015,06,14,06,46,9.60
2015,06,14,06,47,9.70
2015,06,14,06,48,9.80
2015,06,14,06,49,9.90
2015,06,14,06,50,10.00
2015,06,14,06,51,10.10
2015,06,14,06,52,10.20
2015,06,14,06,53,10.30
2015,06,14,06,54,10.40
2015,06,14,06,55,10.50
2015,06,14,06,56,10.60
2015,06,14,06,57,10.70
2015,06,14,06,58,10.80
2015,06,14,06,59,10.90
2015,06,14,07,00,11.00
2015,06,14,07,01,11.00
2015,06,14,07,02,11.10
2015,06,14,07,03,11.10
2015,06,14,07,04,11.20
2015,06,14,07,05,11.20
2015,06,14,07,06,11.30
2015,06,14,07,07,11.30
2015,06,14,07,08,11.40
2015,06,14,07,09,11.40
2015,06,14,07,10,11.40
2015,06,14,07,11,11.40
2015,06,14,07,12,11.50
2015,06,14,07,13,11.50
2015,06,14,07,14,11.60
2015,06,14,07,15,11.60
2015,06,14,07,16,11.60
2015,06,14,07,17,11.70
2015,06,14,07,18,11.70
2015,06,14,07,19,11.70
2015,06,14,07,20,11.70
2015,06,14,07,21,11.80
2015,06,14,07,22,11.80
2015,06,14,07,23,11.80
2015,06,14,07,24,11.90
2015,06,14,07,25,11.90
2015,06,14,07,26,11.90
2015,06,14,07,27,12.00
2015,06,14,07,28,12.00
2015,06,14,07,29,12.00
2015,06,14,07,30,12.10
2015,06,14,07,31,12.10
2015,06,14,07,32,12.10
2015,06,14,07,33,12.20
2015,06,14,07,34,12.20
2015,06,14,07,35,12.20
2015,06,14,07,36,12.30
2015,06,14,07,37,12.30
2015,06,14,07,38,12.30
2015,06,14,07,39,12.40
2015,06,14,07,40,12.40
2015,06,14,07,41,12.40
2015,06,14,07,42,12.50
2015,06,14,07,43,12.50
2015,06,14,07,44,12.60
2015,06,14,07,45,12.60
2015,06,14,07,46,12.60
2015,06,14,07,47,12.70
2015,06,14,07,48,12.70
2015,06,14,07,49,12.70
2015,06,14,07,50,12.70
2015,06,14,07,51,12.80
2015,06,14,07,52,12.80
2015,06,14,07,53,12.80
2015,06,14,07,54,12.90
2015,06,14,07,55,12.90
2015,06,14,07,56,13.00
2015,06,14,07,57,13.00
2015,06,14,07,58,13.10
2015,06,14,07,59,13.10
2015,06,14,08,00,13.20
2015,06,14,08,01,13.20
2015,06,14,08,02,13.30
2015,06,14,08,03,13.30
2015,06,14,08,04,13.30
2015,06,14,08,05,13.30
2015,06,14,08,06,13.30
2015,06,14,08,07,13.30
2015,06,14,08,08,13.40
2015,06,14,08,09,13.40
2015,06,14,08,10,13.40
2015,06,14,08,11,13.50
2015,06,14,08,12,13.50
2015,06,14,08,13,13.60
2015,06,14,08,14,13.60
2015,06,14,08,15,13.70
2015,06,14,08,16,13.70
2015,06,14,08,17,13.70
2015,06,14,08,18,13.70
2015,06,14,08,19,13.80
2015,06,14,08,20,13.80
2015,06,14,08,21,13.80
2015,06,14,08,22,13.90
2015,06,14,08,23,13.90
2015,06,14,08,24,13.90
2015,06,14,08,25,13.90
2015,06,14,08,26,14.00
2015,06,14,08,27,14.00
2015,06,14,08,28,14.00
2015,06,14,08,29,14.00
2015,06,14,08,30,14.10
2015,06,14,08,31,14.10
2015,06,14,08,32,14.10
2015,06,14,08,33,14.20
2015,06,14,08,34,14.20
2015,06,14,08,35,14.20
2015,06,14,08,36,14.30
2015,06,14,08,37,14.30
2015,06,14,08,38,14.30
2015,06,14,08,39,14.30
2015,06,14,08,40,14.40
2015,06,14,08,41,14.40
2015,06,14,08,42,14.50
2015,06,14,08,43,14.60
2015,06,14,08,44,14.60
2015,06,14,08,45,14.60
2015,06,14,08,46,14.60
2015,06,14,08,47,14.60
2015,06,14,08,48,14.70
2015,06,14,08,49,14.70
2015,06,14,08,50,14.70
2015,06,14,08,51,14.80
2015,06,14,08,52,14.80
2015,06,14,08,53,14.80
2015,06,14,08,54,14.80
2015,06,14,08,55,14.80
2015,06,14,08,56,14.90
2015,06,14,08,57,14.90
2015,06,14,08,58,14.90
2015,06,14,08,59,15.00
2015,06,14,09,00,15.10
2015,06,14,09,01,15.10
2015,06,14,09,02,15.10
2015,06,14,09,03,15.20
2015,06,14,09,04,15.20
2015,06,14,09,05,15.30
2015,06,14,09,06,15.30
2015,06,14,09,07,15.30
2015,06,14,09,08,15.30
2015,06,14,09,09,15.30
2015,06,14,09,10,15.40
2015,06,14,09,11,15.40
2015,06,14,09,12,15.40
2015,06,14,09,13,15.50
2015,06,14,09,14,15.50
2015,06,14,09,15,15.60
2015,06,14,09,16,15.60
2015,06,14,09,17,15.60
2015,06,14,09,18,15.70
2015,06,14,09,19,15.80
2015,06,14,09,20,15.80
2015,06,14,09,21,15.90
2015,06,14,09,22,16.00
2015,06,14,09,23,16.10
2015,06,14,09,24,16.20
2015,06,14,09,25,16.20
2015,06,14,09,26,16.30
2015,06,14,09,27,16.30
2015,06,14,09,28,16.40
2015,06,14,09,29,16.50
2015,06,14,09,30,16.60
2015,06,14,09,31,16.70
2015,06,14,09,32,16.90
2015,06,14,09,33,17.00
2015,06,14,09,34,17.00
2015,06,14,09,35,17.10
2015,06,14,09,36,17.00
2015,06,14,09,37,17.00
2015,06,14,09,38,16.90
2015,06,14,09,39,16.90
2015,06,14,09,40,16.90
2015,06,14,09,41,16.90
2015,06,14,09,42,17.00
2015,06,14,09,43,17.10
2015,06,14,09,44,17.10
2015,06,14,09,45,17.10
2015,06,14,09,46,17.10
2015,06,14,09,47,17.20
2015,06,14,09,48,17.20
2015,06,14,09,49,17.30
2015,06,14,09,50,17.30
2015,06,14,09,51,17.40
2015,06,14,09,52,17.40
2015,06,14,09,53,17.40
2015,06,14,09,54,17.40
2015,06,14,09,55,17.40
2015,06,14,09,56,17.40
2015,06,14,09,57,17.40
2015,06,14,09,58,17.50
2015,06,14,09,59,17.50
2015,06,14,10,00,17.60
2015,06,14,10,01,17.70
2015,06,14,10,02,17.70
2015,06,14,10,03,17.70
2015,06,14,10,04,17.70
2015,06,14,10,05,17.70
2015,06,14,10,06,17.70
2015,06,14,10,07,17.70
2015,06,14,10,08,17.70
2015,06,14,10,09,17.70
2015,06,14,10,10,17.80
2015,06,14,10,11,17.80
2015,06,14,10,12,17.80
2015,06,14,10,13,17.70
2015,06,14,10,14,17.60
2015,06,14,10,15,17.60
2015,06,14,10,16,17.60
2015,06,14,10,17,17.50
2015,06,14,10,18,17.40
2015,06,14,10,19,17.40
2015,06,14,10,20,17.40
2015,06,14,10,21,17.40
2015,06,14,10,22,17.30
2015,06,14,10,23,17.20
2015,06,14,10,24,17.20
2015,06,14,10,25,17.20
2015,06,14,10,26,17.20
2015,06,14,10,27,17.30
2015,06,14,10,28,17.30
2015,06,14,10,29,17.40
2015,06,14,10,30,17.50
2015,06,14,10,31,17.60
2015,06,14,10,32,17.60
2015,06,14,10,33,17.60
2015,06,14,10,34,17.70
2015,06,14,10,35,17.80
2015,06,14,10,36,17.80
2015,06,14,10,37,17.90
2015,06,14,10,38,18.00
2015,06,14,10,39,18.10
2015,06,14,10,40,18.10
2015,06,14,10,41,18.20
2015,06,14,10,42,18.20
2015,06,14,10,43,18.20
2015,06,14,10,44,18.20
2015,06,14,10,45,18.20
2015,06,14,10,46,18.20
2015,06,14,10,47,18.20
2015,06,14,10,48,18.20
2015,06,14,10,49,18.20
2015,06,14,10,50,18.20
2015,06,14,10,51,18.20
2015,06,14,10,52,18.20
2015,06,14,10,53,18.20
2015,06,14,10,54,18.20
2015,06,14,10,55,18.20
2015,06,14,10,56,18.20
2015,06,14,10,57,18.20
2015,06,14,10,58,18.20
2015,06,14,10,59,18.20
2015,06,14,11,00,18.20
2015,06,14,11,01,18.20
2015,06,14,11,02,18.20
2015,06,14,11,03,18.30
2015,06,14,11,04,18.30
2015,06,14,11,05,18.40
2015,06,14,11,06,18.40
2015,06,14,11,07,18.50
2015,06,14,11,08,18.50
2015,06,14,11,09,18.60
2015,06,14,11,10,18.70
2015,06,14,11,11,18.80
2015,06,14,11,12,18.80
2015,06,14,11,13,18.90
2015,06,14,11,14,18.90
2015,06,14,11,15,18.90
2015,06,14,11,16,18.90
2015,06,14,11,17,18.90
2015,06,14,11,18,18.90
2015,06,14,11,19,19.00
2015,06,14,11,20,19.00
2015,06,14,11,21,19.10
2015,06,14,11,22,19.10
2015,06,14,11,23,19.10
2015,06,14,11,24,19.10
2015,06,14,11,25,19.00
2015,06,14,11,26,19.00
2015,06,14,11,27,18.90
2015,06,14,11,28,19.00
2015,06,14,11,29,19.00
2015,06,14,11,30,19.10
2015,06,14,11,31,19.10
2015,06,14,11,32,19.10
2015,06,14,11,33,19.00
2015,06,14,11,34,18.90
2015,06,14,11,35,18.70
2015,06,14,11,36,18.70
2015,06,14,11,37,18.60
2015,06,14,11,38,18.60
2015,06,14,11,39,18.70
2015,06,14,11,40,18.80
2015,06,14,11,41,18.90
2015,06,14,11,42,19.10
2015,06,14,11,43,19.10
2015,06,14,11,44,19.20
2015,06,14,11,45,19.20
2015,06,14,11,46,19.20
2015,06,14,11,47,19.20
2015,06,14,11,48,19.10
2015,06,14,11,49,19.00
2015,06,14,11,50,18.80
2015,06,14,11,51,18.70
2015,06,14,11,52,18.60
2015,06,14,11,53,18.50
2015,06,14,11,54,18.50
2015,06,14,11,55,18.50
2015,06,14,11,56,18.60
2015,06,14,11,57,18.70
2015,06,14,11,58,18.70
2015,06,14,11,59,18.70
2015,06,14,12,00,18.70
2015,06,14,12,01,18.70
2015,06,14,12,02,18.80
2015,06,14,12,03,18.80
2015,06,14,12,04,18.90
2015,06,14,12,05,18.90
2015,06,14,12,06,19.00
2015,06,14,12,07,19.10
2015,06,14,12,08,19.10
2015,06,14,12,09,19.30
2015,06,14,12,10,19.40
2015,06,14,12,11,19.50
2015,06,14,12,12,19.60
2015,06,14,12,13,19.70
2015,06,14,12,14,19.70
2015,06,14,12,15,19.70
2015,06,14,12,16,19.80
2015,06,14,12,17,19.90
2015,06,14,12,18,20.00
2015,06,14,12,19,20.10
2015,06,14,12,20,20.10
2015,06,14,12,21,20.10
2015,06,14,12,22,20.20
2015,06,14,12,23,20.20
2015,06,14,12,24,20.20
2015,06,14,12,25,20.20
2015,06,14,12,26,20.30
2015,06,14,12,27,20.30
2015,06,14,12,28,20.30
2015,06,14,12,29,20.40
2015,06,14,12,30,20.50
2015,06,14,12,31,20.50
2015,06,14,12,32,20.50
2015,06,14,12,33,20.50
2015,06,14,12,34,20.50
2015,06,14,12,35,20.60
2015,06,14,12,36,20.60
2015,06,14,12,37,20.60
2015,06,14,12,38,20.70
2015,06,14,12,39,20.80
2015,06,14,12,40,20.80
2015,06,14,12,41,20.80
2015,06,14,12,42,20.80
2015,06,14,12,43,20.80
2015,06,14,12,44,20.90
2015,06,14,12,45,21.00
2015,06,14,12,46,21.10
2015,06,14,12,47,21.20
2015,06,14,12,48,21.30
2015,06,14,12,49,21.30
2015,06,14,12,50,21.30
2015,06,14,12,51,21.20
2015,06,14,12,52,21.10
2015,06,14,12,53,21.10
2015,06,14,12,54,21.10
2015,06,14,12,55,21.10
2015,06,14,12,56,21.10
2015,06,14,12,57,21.10
2015,06,14,12,58,21.20
2015,06,14,12,59,21.20
2015,06,14,13,00,21.20
2015,06,14,13,01,21.30
2015,06,14,13,02,21.40
2015,06,14,13,03,21.50
2015,06,14,13,04,21.50
2015,06,14,13,05,21.50
2015,06,14,13,06,21.50
2015,06,14,13,07,21.40
2015,06,14,13,08,21.40
2015,06,14,13,09,21.40
2015,06,14,13,10,21.50
2015,06,14,13,11,21.60
2015,06,14,13,12,21.60
2015,06,14,13,13,21.70
2015,06,14,13,14,21.70
2015,06,14,13,15,21.70
2015,06,14,13,16,21.70
2015,06,14,13,17,21.70
2015,06,14,13,18,21.70
2015,06,14,13,19,21.70
2015,06,14,13,20,21.60
2015,06,14,13,21,21.60
2015,06,14,13,22,21.60
2015,06,14,13,23,21.60
2015,06,14,13,24,21.70
2015,06,14,13,25,21.70
2015,06,14,13,26,21.80
2015,06,14,13,27,21.80
2015,06,14,13,28,21.90
2015,06,14,13,29,21.90
2015,06,14,13,30,21.90
2015,06,14,13,31,21.90
2015,06,14,13,32,21.90
2015,06,14,13,33,21.90
2015,06,14,13,34,21.90
2015,06,14,13,35,22.00
2015,06,14,13,36,22.00
2015,06,14,13,37,22.00
2015,06,14,13,38,21.90
2015,06,14,13,39,21.90
2015,06,14,13,40,21.80
2015,06,14,13,41,21.80
2015,06,14,13,42,21.90
2015,06,14,13,43,22.00
2015,06,14,13,44,22.20
2015,06,14,13,45,22.30
2015,06,14,13,46,22.40
2015,06,14,13,47,22.40
2015,06,14,13,48,22.50
2015,06,14,13,49,22.60
2015,06,14,13,50,22.60
2015,06,14,13,51,22.60
2015,06,14,13,52,22.50
2015,06,14,13,53,22.50
2015,06,14,13,54,22.50
2015,06,14,13,55,22.50
2015,06,14,13,56,22.60
2015,06,14,13,57,22.60
2015,06,14,13,58,22.70
2015,06,14,13,59,22.60
2015,06,14,14,00,22.60
2015,06,14,14,01,22.50
2015,06,14,14,02,22.40
2015,06,14,14,03,22.30
2015,06,14,14,04,22.20
2015,06,14,14,05,22.30
2015,06,14,14,06,22.30
2015,06,14,14,07,22.30
2015,06,14,14,08,22.30
2015,06,14,14,09,22.30
2015,06,14,14,10,22.30
2015,06,14,14,11,22.30
2015,06,14,14,12,22.40
2015,06,14,14,13,22.50
2015,06,14,14,14,22.60
2015,06,14,14,15,22.70
2015,06,14,14,16,22.80
2015,06,14,14,17,22.90
2015,06,14,14,18,23.00
2015,06,14,14,19,23.00
2015,06,14,14,20,22.90
2015,06,14,14,21,22.90
2015,06,14,14,22,22.90
2015,06,14,14,23,23.00
2015,06,14,14,24,23.00
2015,06,14,14,25,23.00
2015,06,14,14,26,23.10
2015,06,14,14,27,23.10
2015,06,14,14,28,23.10
2015,06,14,14,29,23.10
2015,06,14,14,30,23.20
2015,06,14,14,31,23.20
2015,06,14,14,32,23.20
2015,06,14,14,33,23.20
2015,06,14,14,34,23.20
2015,06,14,14,35,23.10
2015,06,14,14,36,23.10
2015,06,14,14,37,23.20
2015,06,14,14,38,23.20
2015,06,14,14,39,23.20
2015,06,14,14,40,23.20
2015,06,14,14,41,23.20
2015,06,14,14,42,23.30
2015,06,14,14,43,23.40
2015,06,14,14,44,23.50
2015,06,14,14,45,23.60
2015,06,14,14,46,23.70
2015,06,14,14,47,23.80
2015,06,14,14,48,23.80
2015,06,14,14,49,23.70
2015,06,14,14,50,23.70
2015,06,14,14,51,23.70
2015,06,14,14,52,23.70
2015,06,14,14,53,23.70
2015,06,14,14,54,23.70
2015,06,14,14,55,23.80
2015,06,14,14,56,23.80
2015,06,14,14,57,23.90
2015,06,14,14,58,23.80
2015,06,14,14,59,23.80
2015,06,14,15,00,23.80
2015,06,14,15,01,23.80
2015,06,14,15,02,23.80
2015,06,14,15,03,23.80
2015,06,14,15,04,23.80
2015,06,14,15,05,23.90
2015,06,14,15,06,23.90
2015,06,14,15,07,23.90
2015,06,14,15,08,23.90
2015,06,14,15,09,23.80
2015,06,14,15,10,23.80
2015,06,14,15,11,23.80
2015,06,14,15,12,23.80
2015,06,14,15,13,23.80
2015,06,14,15,14,23.80
2015,06,14,15,15,23.70
2015,06,14,15,16,23.70
2015,06,14,15,17,23.80
2015,06,14,15,18,23.80
2015,06,14,15,19,23.90
2015,06,14,15,20,24.00
2015,06,14,15,21,24.20
2015,06,14,15,22,24.30
2015,06,14,15,23,24.40
2015,06,14,15,24,24.50
2015,06,14,15,25,24.50
2015,06,14,15,26,24.40
2015,06,14,15,27,24.20
2015,06,14,15,28,24.00
2015,06,14,15,29,23.90
2015,06,14,15,30,23.80
2015,06,14,15,31,23.80
2015,06,14,15,32,23.80
2015,06,14,15,33,23.80
2015,06,14,15,34,23.80
2015,06,14,15,35,23.90
2015,06,14,15,36,24.00
2015,06,14,15,37,24.10
2015,06,14,15,38,24.20
2015,06,14,15,39,24.20
2015,06,14,15,40,24.30
2015,06,14,15,41,24.30
2015,06,14,15,42,24.20
2015,06,14,15,43,24.20
2015,06,14,15,44,24.20
2015,06,14,15,45,24.20
2015,06,14,15,46,24.20
2015,06,14,15,47,24.20
2015,06,14,15,48,24.30
2015,06,14,15,49,24.40
2015,06,14,15,50,24.40
2015,06,14,15,51,24.50
2015,06,14,15,52,24.60
2015,06,14,15,53,24.60
2015,06,14,15,54,24.50
2015,06,14,15,55,24.50
2015,06,14,15,56,24.50
2015,06,14,15,57,24.60
2015,06,14,15,58,24.50
2015,06,14,15,59,24.50
2015,06,14,16,00,24.60
2015,06,14,16,01,24.60
2015,06,14,16,02,24.50
2015,06,14,16,03,24.50
2015,06,14,16,04,24.50
2015,06,14,16,05,24.40
2015,06,14,16,06,24.40
2015,06,14,16,07,24.30
2015,06,14,16,08,24.30
2015,06,14,16,09,24.30
2015,06,14,16,10,24.30
2015,06,14,16,11,24.30
2015,06,14,16,12,24.30
2015,06,14,16,13,24.30
2015,06,14,16,14,24.40
2015,06,14,16,15,24.40
2015,06,14,16,16,24.50
2015,06,14,16,17,24.60
2015,06,14,16,18,24.70
2015,06,14,16,19,24.80
2015,06,14,16,20,24.80
2015,06,14,16,21,24.90
2015,06,14,16,22,24.90
2015,06,14,16,23,24.90
2015,06,14,16,24,24.80
2015,06,14,16,25,24.80
2015,06,14,16,26,24.80
2015,06,14,16,27,24.70
2015,06,14,16,28,24.70
2015,06,14,16,29,24.60
2015,06,14,16,30,24.60
2015,06,14,16,31,24.60
2015,06,14,16,32,24.70
2015,06,14,16,33,24.70
2015,06,14,16,34,24.80
2015,06,14,16,35,24.80
2015,06,14,16,36,24.80
2015,06,14,16,37,24.80
2015,06,14,16,38,24.70
2015,06,14,16,39,24.70
2015,06,14,16,40,24.70
2015,06,14,16,41,24.80
2015,06,14,16,42,24.90
2015,06,14,16,43,24.90
2015,06,14,16,44,24.90
2015,06,14,16,45,25.00
2015,06,14,16,46,24.90
2015,06,14,16,47,24.90
2015,06,14,16,48,24.80
2015,06,14,16,49,24.80
2015,06,14,16,50,24.80
2015,06,14,16,51,24.80
2015,06,14,16,52,24.80
2015,06,14,16,53,24.80
2015,06,14,16,54,24.80
2015,06,14,16,55,24.80
2015,06,14,16,56,24.80
2015,06,14,16,57,24.80
2015,06,14,16,58,24.80
2015,06,14,16,59,24.80
2015,06,14,17,00,24.90
2015,06,14,17,01,25.00
2015,06,14,17,02,25.10
2015,06,14,17,03,25.10
2015,06,14,17,04,25.00
2015,06,14,17,05,25.00
2015,06,14,17,06,24.90
2015,06,14,17,07,24.90
2015,06,14,17,08,24.90
2015,06,14,17,09,24.90
2015,06,14,17,10,25.00
2015,06,14,17,11,25.00
2015,06,14,17,12,25.10
2015,06,14,17,13,25.10
2015,06,14,17,14,25.20
2015,06,14,17,15,25.20
2015,06,14,17,16,25.30
2015,06,14,17,17,25.30
2015,06,14,17,18,25.30
2015,06,14,17,19,25.30
2015,06,14,17,20,25.40
2015,06,14,17,21,25.40
2015,06,14,17,22,25.50
2015,06,14,17,23,25.50
2015,06,14,17,24,25.60
2015,06,14,17,25,25.60
2015,06,14,17,26,25.70